Location: Unspecified
(38.6830°S, 0.0000°E)
Time: 15:54:19
(UTC+00:00)

Envisat - Pass Details

Date: 03 June 2019
Orbit: 764 x 766 km, 98.1° (Epoch: 19 June)

Event Time Altitude Azimuth Distance (km) Brightness Sun altitude
Rises 05:55:31 0° 30° (NNE) 3,224 7.0 -14.2°
Reaches altitude 10° 05:57:52 10° 36° (NE) 2,306 6.3 -13.8°
Maximum altitude 06:02:44 47° 108° (ESE) 1,028 4.1 -12.9°
Drops below altitude 10° 06:07:38 10° 180° (S) 2,336 5.3 -11.9°
Sets 06:10:02 0° 186° (S) 3,270 6.0 -11.5°
